Showing default

HAWK-A, 43765

Orbit data source: Space-Track

HAWK-A, 43765 is a payload satellite owned by HawkEye 360 (US) in SSO that was launched on Mon, 03 Dec 2018 UTC via an FALCON 9 launch vehicle from the Air Force Western Test Range (AFWTR). Payload-class satellites include a variety of spacecraft equipped with specific instruments for various scientific and technological missions. These include communications satellites like Starlink; space stations such as the ISS; scientific satellites like the Hubble; Earth observation satellites from companies like Planet Labs, Umbra, and HawkEye 360; GPS; miniature CubeSats for education and research; and military/defense satellites.

Loading next visibility...
Identifier
43765, 2018-099H
Orbit
SSO
Country
Flag of USUS
Related business
Manufacturer
UTIAS-SFL
Mission
Operational Commercial Sigint
Bus & Motor
NEMO-V1, Unknown motor
Mass
12.75 kg wet, 12 kg dry
Launch date (UTC)
2018-12-03 (8 years ago)
Launch vehicle
FALCON 9
Launch site
Air Force Western Test Range (AFWTR)
Object type
Payload
Rocket body
Debris
Shape & HBR
Box + 2 Pan, 1.0 m
Radar Cross Section
0.348 m², Medium (>0.1 m² and < 1m²)

Expand to show TLE details & history
Last TLE update: 3 days ago

TLE from 3 days ago
0 HAWK-A
1 43765U 18099H   26170.71081534  .00004986  00000-0  20173-3 0  9990
2 43765  97.3908 222.9140 0033056 276.5231  83.2244 15.24666904413482
Epoch: 2026-06-19T17:03Z
TLE epoch observation values (Epoch: 2026-06-19T17:03:34.445Z)
Latitude
0.00001°
Longitude
59.0846°
Altitude
492.277 km
Speed
7.62 km/s
True Right ascension
14h 51m 39s
True Declination
0° 00' 00"
Sunlit
Object was in full shadow at epoch
Visualization orbit readout
Latitude
Unknown
Longitude
Unknown
Altitude
Unknown
Speed
Unknown
Apparent Right ascension
Unknown
Apparent Declination
Unknown
Sunlit
N/A
Visualization observer readout
Local Sidereal Time
21:37:44
Azimuth
Unknown
Elevation
Unknown
Doppler factor
Unknown
Orbital elements
Apogee altitude
511.444 km
Perigee altitude
466.046 km
Semi-major axis
6,866.882 km
Eccentricity
0.00331
Inclination
97.3908°
RAAN
222.914°
Arg. of periapsis
276.5231°
True anomaly
83.60073°
Mean anomaly
83.2244°
Eccentric anomaly
83.41255°
Mean motion
3.8142 °/min
Orbital period
94.38 mins
BSTAR
0.00020173
Loading maneuver chart data...
Computing Atmospheric mass density...
Loading historical data...
Loading historical data...
Loading historical data...
Loading historical data...
Loading historical data...
Loading historical data...
Loading historical data...

Documentation

Showing up to 5 results
|